Wind_Speed
53 52 53 53 53 51 49 50 49 46 45 42 41 42 41 40 39 38 37 34 33 32 29 27 27 27 30 28 28 27 30 30 31 28 30 25 24 18 14 5 4 2 1 6 9 8 7
57 56 55 55 54 52 52 53 51 48 46 45 43 43 43 42 41 38 36 35 34 32 30 29 26 28 29 26 26 26 29 30 29 26 28 23 21 14 11 6 2 4 5 5 10 7 10
59 59 58 59 60 59 55 53 54 52 50 47 45 47 44 43 43 42 39 38 35 34 30 30 27 27 29 27 26 26 29 29 27 24 26 22 19 12 10 6 8 8 6 6 4 0 6
56 57 58 59 59 58 57 54 54 55 55 55 52 49 47 47 44 43 41 40 38 38 34 33 31 30 29 29 28 26 29 27 26 23 24 20 17 9 7 5 13 9 5 4 9 2 2
55 54 54 53 53 55 57 55 57 56 56 57 56 52 50 47 47 45 42 40 40 40 37 34 35 35 32 32 30 26 29 25 24 21 22 17 15 7 5 5 14 12 6 8 5 4 10
57 57 56 56 56 56 55 53 54 56 57 58 58 57 55 52 48 47 44 42 41 38 37 35 33 33 33 37 29 27 28 25 23 19 20 15 12 5 5 5 8 13 7 6 6 3 10
64 63 63 62 61 60 58 56 56 55 53 53 55 57 56 55 53 50 49 47 44 41 37 33 33 31 30 35 27 26 27 25 22 17 18 12 11 7 6 7 8 19 14 10 10 3 9
71 71 69 69 68 67 65 62 60 59 56 55 52 50 53 54 55 53 50 47 42 41 39 34 32 27 28 28 26 28 28 25 21 15 16 10 7 2 2 5 7 11 13 12 11 6 8
77 77 76 75 74 73 72 70 67 64 61 60 57 54 51 51 53 54 52 52 46 42 41 35 33 26 29 29 29 30 27 24 20 14 14 10 5 2 1 6 6 9 12 10 13 12 11
84 84 83 81 80 79 78 77 74 71 67 64 61 59 56 53 52 52 52 50 46 43 43 34 32 34 30 29 30 34 29 25 19 15 13 10 7 5 3 6 7 10 12 10 12 8 8
84 85 85 87 87 87 84 81 79 75 73 69 66 62 60 57 54 52 49 48 46 41 44 39 33 34 30 30 26 31 27 26 19 16 13 10 9 8 9 7 7 9 10 13 11 9 8
65 67 70 70 72 76 77 78 82 78 74 72 71 68 64 59 57 55 51 52 48 45 51 43 33 28 27 28 27 32 28 26 21 17 13 14 12 10 15 12 10 8 8 9 9 11 11
49 49 49 50 49 50 51 56 62 65 65 66 71 71 68 64 59 59 55 54 49 49 50 42 37 29 25 24 29 35 30 26 21 17 12 13 15 14 16 16 10 12 11 7 11 12 10
44 47 50 52 54 54 52 49 48 52 60 65 70 73 72 68 64 62 60 56 54 47 49 47 36 36 29 26 35 36 32 30 26 19 17 16 19 17 15 17 15 16 16 12 12 11 11
50 51 51 52 51 51 53 55 54 51 46 69 76 79 77 73 70 66 65 63 51 48 46 43 38 39 36 33 38 40 35 27 25 20 18 16 18 20 21 22 22 21 21 19 17 18 17
58 57 57 58 60 60 57 53 54 55 54 51 76 80 78 76 75 71 70 63 55 50 46 42 41 39 38 38 41 43 36 31 28 23 21 17 19 22 23 25 27 26 25 23 23 22 21
64 63 64 65 65 63 63 64 61 54 57 59 55 77 80 78 77 78 78 58 58 55 50 43 44 45 39 41 39 38 34 29 28 25 23 20 21 23 25 27 28 29 29 28 25 24 22
65 70 72 72 71 69 65 66 66 63 58 61 62 55 76 82 83 83 76 57 61 58 52 47 48 48 44 43 41 38 32 25 27 26 23 21 23 24 23 27 29 31 31 30 28 26 25
75 74 74 75 72 72 71 69 70 67 64 62 60 60 61 74 86 83 68 69 65 63 56 51 50 50 49 43 46 44 37 32 31 30 26 23 25 25 26 27 30 29 29 27 28 27 27
74 73 71 70 70 73 73 72 70 71 67 64 64 66 66 65 77 78 73 76 71 65 58 52 53 53 50 46 44 43 38 35 33 32 29 29 28 25 26 21 24 24 24 25 28 28 25
68 68 65 61 57 58 56 59 62 72 71 68 65 69 65 58 75 80 80 74 71 68 62 58 56 55 53 50 47 49 39 35 33 33 32 32 31 28 23 25 30 28 30 30 32 27 29
61 56 51 49 53 58 56 52 56 65 72 75 67 64 62 60 54 76 83 83 77 70 63 59 55 53 51 48 49 40 38 39 34 34 35 35 32 27 25 24 27 27 29 33 33 28 24
52 55 55 56 55 55 55 52 63 62 67 72 66 64 61 61 48 73 85 81 77 73 65 59 54 50 49 44 46 46 41 43 41 38 39 38 33 30 27 26 28 26 26 27 26 23 21
58 61 60 60 57 57 55 57 72 57 64 65 60 62 59 60 56 65 80 81 80 75 69 64 61 56 51 40 41 42 47 45 43 39 40 40 36 34 31 29 32 12 16 19 22 20 20
39 46 58 59 63 61 57 63 74 60 56 60 63 57 57 56 42 57 78 83 81 80 75 66 62 54 48 44 41 43 39 48 45 44 40 39 37 35 34 30 27 21 19 18 19 14 21
26 25 38 49 58 58 59 62 75 58 56 62 57 55 54 50 36 53 78 82 84 80 78 64 60 57 52 51 52 45 47 44 49 47 42 41 40 37 35 33 29 18 18 20 24 12 22
18 18 36 48 52 54 50 68 69 56 55 60 53 52 47 44 42 54 75 81 82 82 77 68 62 59 55 50 53 53 52 50 48 48 45 40 40 40 33 32 27 21 21 22 26 17 25
14 21 37 45 53 47 61 63 58 49 58 53 49 49 40 38 43 58 69 74 83 81 77 71 65 60 53 50 50 53 52 55 49 48 49 44 40 37 35 34 29 16 24 27 21 25 25
18 30 42 47 48 47 65 53 48 48 52 47 48 41 36 33 41 56 63 70 73 77 78 72 63 62 55 55 53 52 55 51 52 48 46 47 41 37 36 33 26 21 23 28 27 27 27
Wind_Direction
267 264 262 261 260 261 262 262 262 263 264 262 260 263 263 263 264 266 267 266 267 268 269 276 281 294 292 295 297 299 302 312 317 333 335 335 338 338 327 297 248 231 31 247 246 263 216
266 266 263 261 260 261 263 262 260 257 259 261 261 261 262 263 263 263 263 266 265 265 265 269 276 272 288 291 296 297 299 308 315 330 334 332 337 328 317 292 181 164 191 225 237 263 181
264 262 262 262 262 261 261 258 258 256 256 257 260 261 261 261 263 262 261 262 265 266 267 267 268 269 284 288 296 290 291 303 312 328 333 332 333 315 309 297 166 194 191 207 251 299 38
261 261 261 262 261 261 259 256 257 258 258 258 262 262 262 261 261 263 264 262 262 265 267 265 262 271 275 282 289 285 287 298 306 324 331 333 333 307 293 308 187 190 208 263 176 99 317
263 263 262 263 262 263 260 259 259 259 259 260 261 261 263 263 261 261 263 265 264 265 270 264 256 267 268 268 274 277 282 292 301 319 328 333 335 302 279 283 210 195 207 171 125 132 180
265 264 263 263 262 260 261 261 260 258 256 256 258 259 262 260 262 261 260 264 266 267 269 268 258 267 278 280 257 268 276 285 295 316 323 328 334 289 265 250 206 225 221 207 226 227 200
264 264 265 264 262 261 259 258 259 259 259 259 258 257 256 260 259 260 262 263 263 263 262 267 263 264 275 287 257 259 270 280 287 309 317 321 336 300 249 215 203 207 209 214 227 235 207
266 265 262 262 262 262 260 258 256 255 256 257 257 256 255 254 258 259 260 263 263 258 259 258 263 264 271 275 249 254 266 271 277 300 307 305 336 288 280 214 196 183 198 228 233 190 210
266 265 264 263 262 261 260 260 258 254 253 252 253 255 254 253 254 257 259 261 264 260 257 257 259 261 263 262 254 249 259 261 269 285 295 280 293 242 302 244 203 181 197 218 236 227 211
266 266 264 262 262 261 260 259 257 255 251 249 250 249 249 251 252 254 255 258 258 259 258 253 252 252 248 254 255 239 245 249 259 272 283 268 271 234 230 263 253 214 221 237 237 224 218
271 269 267 265 265 264 261 258 258 255 252 247 245 245 246 245 248 250 251 252 252 254 255 258 248 250 248 258 252 240 237 238 248 257 272 241 240 222 216 238 263 225 212 213 218 209 209
270 270 270 269 268 266 266 265 262 258 254 248 243 241 241 241 242 244 246 247 246 246 252 252 253 247 244 247 234 226 229 233 231 248 260 257 224 219 217 229 272 233 198 195 197 205 227
265 265 265 266 265 263 261 257 256 255 252 249 243 238 237 237 238 239 237 238 238 243 247 247 247 244 236 236 231 222 227 236 244 248 256 246 219 221 219 227 245 235 209 214 231 234 245
266 265 264 264 262 260 258 258 259 249 238 234 233 234 232 233 234 235 234 232 234 243 244 244 240 243 239 227 221 218 224 226 228 232 235 244 231 221 222 228 227 228 232 215 234 232 249
266 264 264 264 262 261 259 254 250 250 248 234 229 227 224 227 230 232 231 228 234 235 237 236 233 235 236 234 222 219 221 223 224 225 233 241 231 223 223 227 227 222 226 225 235 246 258
266 263 262 261 262 258 256 254 251 247 240 241 234 230 222 220 224 226 228 224 225 229 234 226 226 224 229 230 222 220 216 215 218 220 225 225 226 226 228 230 229 222 227 230 240 254 259
267 265 264 265 264 258 254 250 249 247 241 235 238 236 220 217 219 219 224 223 223 222 223 217 218 220 221 224 215 217 217 212 217 221 221 223 223 231 232 233 237 231 230 230 240 251 254
273 265 262 259 257 256 251 247 244 241 240 236 232 236 228 220 215 219 219 218 221 221 221 216 213 217 216 217 210 206 208 210 220 224 225 225 225 229 233 236 238 235 230 234 246 256 261
275 270 264 260 256 255 251 247 240 237 233 235 233 230 230 225 219 216 211 215 218 219 220 217 211 215 216 210 214 212 210 206 213 222 220 219 220 223 230 236 238 240 242 248 253 254 260
271 267 259 259 261 250 244 237 229 229 229 228 230 229 231 223 224 220 212 213 213 216 215 213 210 213 215 217 215 207 201 208 215 221 215 219 223 229 237 248 246 242 245 247 250 253 260
272 266 259 253 244 230 229 229 230 221 222 222 225 230 228 230 223 221 214 213 211 212 214 214 208 211 219 221 219 214 206 212 217 221 218 221 225 225 230 229 235 235 237 241 249 254 259
264 253 242 235 228 228 229 231 222 218 218 221 222 229 228 228 222 221 218 210 211 210 211 217 210 211 218 218 221 203 204 207 214 219 221 224 229 230 229 228 230 239 244 244 249 258 266
256 249 240 234 233 229 225 222 210 214 210 218 216 224 226 223 226 211 217 216 210 208 205 211 214 217 216 215 221 212 196 205 206 213 217 225 227 229 228 229 235 240 246 246 252 253 261
258 249 239 232 227 223 222 211 207 206 216 213 211 219 223 219 226 217 213 215 217 213 206 207 209 210 213 214 219 208 203 205 209 210 217 220 222 224 229 229 234 237 235 240 242 243 255
264 247 231 225 218 219 213 205 200 198 216 207 206 213 218 222 231 215 208 214 217 220 218 207 209 209 213 206 219 217 210 210 209 210 216 221 222 225 233 238 243 226 221 236 250 233 261
257 231 206 205 202 202 198 200 196 193 206 202 202 209 212 218 223 218 205 210 215 218 222 211 211 209 212 213 214 216 205 213 212 215 216 220 222 227 235 240 239 229 234 242 251 220 272
214 197 188 184 188 187 194 185 179 188 201 196 200 203 206 216 223 213 206 208 214 219 221 218 212 213 209 213 220 218 209 211 211 217 218 223 223 228 237 246 249 238 244 241 250 259 264
168 178 170 173 177 181 179 169 171 183 195 196 196 197 202 216 213 206 203 205 213 217 221 217 215 214 211 214 223 219 214 214 214 216 218 220 226 231 238 245 250 259 245 250 265 263 263
136 158 166 167 172 170 166 162 167 185 191 191 191 190 200 209 212 207 203 205 214 218 222 219 210 216 209 210 219 222 219 216 218 221 221 226 229 236 240 247 252 253 253 252 257 263 268
Height
5760 5762 5764 5766 5769 5771 5773 5775 5776 5779 5782 5784 5785 5788 5789 5791 5793 5796 5798 5798 5799 5801 5801 5802 5802 5801 5803 5801 5800 5796 5794 5792 5790 5786 5781 5777 5773 5772 5770 5766 5766 5765 5766 5766 5765 5766 5765
5747 5749 5752 5753 5756 5758 5761 5764 5766 5768 5771 5774 5777 5778 5780 5782 5785 5787 5789 5791 5793 5794 5794 5795 5796 5796 5796 5796 5794 5793 5790 5789 5786 5783 5779 5775 5771 5770 5768 5765 5766 5765 5765 5765 5764 5765 5764
5733 5735 5738 5740 5743 5745 5748 5751 5754 5757 5760 5763 5766 5769 5771 5773 5776 5778 5781 5783 5785 5787 5789 5789 5789 5789 5790 5790 5789 5788 5786 5785 5783 5780 5776 5773 5769 5768 5767 5765 5764 5764 5765 5766 5765 5766 5764
5718 5720 5723 5726 5728 5731 5734 5738 5741 5744 5749 5751 5755 5759 5762 5765 5767 5770 5772 5775 5778 5780 5782 5783 5782 5783 5783 5783 5784 5784 5782 5781 5779 5777 5774 5770 5768 5766 5766 5765 5764 5764 5765 5767 5766 5766 5766
5704 5707 5709 5713 5715 5718 5721 5724 5729 5732 5736 5739 5743 5747 5752 5755 5759 5761 5765 5766 5769 5771 5772 5774 5776 5775 5776 5777 5778 5779 5777 5777 5775 5774 5771 5768 5766 5764 5764 5764 5766 5765 5769 5767 5768 5766 5765
5689 5692 5694 5699 5702 5705 5708 5711 5714 5719 5722 5727 5731 5734 5739 5744 5748 5753 5756 5759 5761 5763 5765 5766 5768 5769 5770 5770 5771 5772 5773 5773 5772 5771 5769 5766 5764 5763 5762 5762 5766 5768 5768 5767 5767 5767 5766
5673 5675 5678 5682 5686 5691 5695 5698 5701 5705 5709 5713 5718 5722 5727 5731 5735 5740 5745 5749 5754 5756 5757 5759 5760 5760 5762 5762 5765 5766 5767 5768 5768 5768 5766 5764 5763 5762 5760 5759 5761 5762 5764 5766 5764 5766 5767
5655 5658 5660 5664 5668 5673 5678 5682 5688 5691 5695 5700 5704 5709 5714 5719 5723 5727 5732 5736 5742 5745 5749 5750 5752 5756 5754 5755 5758 5760 5763 5765 5764 5764 5763 5762 5761 5760 5759 5759 5759 5760 5763 5765 5765 5765 5766
5633 5637 5640 5644 5648 5653 5658 5664 5671 5677 5682 5687 5691 5696 5702 5707 5711 5715 5720 5725 5733 5735 5738 5745 5745 5749 5747 5749 5751 5754 5757 5759 5761 5760 5761 5759 5759 5758 5758 5758 5758 5758 5760 5762 5764 5765 5765
5610 5613 5618 5623 5628 5633 5638 5644 5651 5659 5666 5672 5677 5682 5689 5694 5701 5704 5709 5715 5721 5725 5726 5738 5737 5738 5738 5741 5743 5746 5750 5754 5756 5756 5757 5756 5756 5756 5756 5757 5758 5757 5757 5759 5761 5764 5767
5585 5589 5593 5598 5602 5607 5615 5622 5629 5638 5646 5655 5662 5668 5674 5680 5688 5693 5700 5703 5709 5716 5716 5723 5729 5729 5735 5732 5739 5740 5745 5746 5750 5751 5753 5753 5752 5753 5755 5756 5756 5756 5755 5757 5759 5761 5763
5565 5567 5570 5574 5579 5584 5590 5596 5605 5615 5624 5634 5644 5652 5658 5666 5674 5679 5686 5692 5697 5704 5703 5713 5720 5722 5725 5726 5730 5732 5737 5741 5743 5745 5747 5747 5748 5749 5752 5752 5754 5755 5754 5755 5757 5759 5762
5550 5552 5554 5556 5560 5565 5569 5575 5582 5590 5599 5609 5621 5633 5643 5650 5660 5664 5670 5678 5685 5689 5696 5705 5711 5715 5716 5717 5722 5726 5731 5736 5739 5742 5743 5743 5745 5745 5747 5750 5751 5753 5753 5756 5758 5758 5760
5535 5537 5540 5542 5545 5550 5555 5560 5565 5572 5579 5586 5595 5608 5622 5635 5641 5647 5653 5660 5670 5683 5689 5694 5702 5707 5710 5711 5714 5720 5724 5728 5732 5736 5737 5738 5739 5742 5744 5747 5748 5750 5752 5753 5754 5756 5758
5519 5522 5524 5528 5531 5535 5539 5545 5551 5554 5562 5566 5572 5583 5599 5615 5623 5628 5633 5640 5664 5671 5680 5686 5692 5698 5701 5704 5706 5712 5716 5724 5727 5731 5733 5734 5735 5737 5739 5742 5744 5744 5747 5749 5750 5751 5753
5501 5503 5506 5510 5514 5519 5524 5529 5535 5540 5545 5549 5554 5563 5582 5595 5601 5606 5611 5635 5651 5662 5668 5677 5681 5688 5693 5696 5698 5704 5709 5715 5720 5724 5726 5729 5729 5731 5733 5736 5739 5740 5742 5745 5746 5747 5748
5480 5482 5485 5488 5493 5499 5504 5512 5519 5524 5529 5532 5536 5543 5566 5576 5578 5579 5590 5633 5641 5648 5656 5665 5670 5677 5683 5687 5690 5697 5705 5712 5714 5717 5719 5721 5723 5726 5728 5730 5734 5736 5737 5739 5742 5742 5743
5456 5457 5460 5464 5469 5476 5482 5491 5499 5507 5512 5513 5522 5532 5550 5550 5551 5562 5588 5625 5629 5636 5645 5652 5661 5667 5672 5678 5683 5688 5698 5705 5707 5710 5712 5716 5716 5719 5724 5725 5727 5729 5732 5734 5736 5739 5739
5428 5429 5430 5435 5441 5448 5457 5467 5477 5486 5492 5500 5509 5519 5521 5528 5537 5550 5594 5600 5611 5621 5633 5642 5650 5657 5663 5667 5675 5680 5689 5696 5699 5702 5705 5709 5710 5713 5716 5720 5721 5724 5728 5730 5732 5732 5733
5396 5396 5399 5404 5409 5417 5428 5440 5452 5464 5474 5484 5490 5496 5501 5511 5538 5554 5574 5577 5592 5608 5621 5631 5639 5648 5654 5659 5665 5671 5681 5687 5692 5695 5699 5702 5704 5708 5711 5717 5717 5719 5722 5723 5724 5725 5728
5363 5365 5368 5371 5379 5393 5405 5416 5429 5443 5455 5464 5468 5477 5496 5508 5519 5543 5552 5572 5582 5592 5609 5617 5627 5637 5643 5650 5656 5663 5672 5679 5684 5688 5691 5693 5696 5701 5705 5708 5709 5712 5714 5715 5715 5719 5720
5332 5336 5342 5351 5361 5374 5386 5397 5409 5423 5437 5440 5453 5472 5489 5502 5515 5531 5542 5545 5563 5580 5597 5609 5621 5629 5634 5640 5647 5652 5660 5668 5675 5680 5683 5685 5690 5694 5697 5701 5703 5704 5706 5707 5709 5712 5715
5307 5313 5320 5330 5342 5354 5367 5379 5393 5409 5418 5420 5443 5465 5477 5491 5501 5505 5521 5544 5556 5567 5583 5597 5611 5621 5625 5632 5635 5641 5649 5656 5662 5669 5674 5678 5684 5687 5691 5695 5696 5697 5700 5702 5704 5706 5709
5278 5284 5293 5306 5320 5334 5348 5362 5377 5392 5404 5421 5443 5459 5467 5476 5481 5498 5517 5534 5545 5557 5567 5581 5593 5604 5614 5623 5627 5634 5641 5648 5654 5661 5665 5670 5677 5681 5684 5686 5685 5695 5696 5697 5698 5701 5702
5251 5252 5262 5279 5297 5314 5330 5347 5367 5382 5399 5415 5432 5447 5458 5468 5482 5489 5501 5520 5533 5542 5554 5569 5583 5597 5605 5615 5620 5625 5633 5640 5647 5652 5658 5664 5669 5673 5675 5679 5684 5686 5690 5692 5694 5698 5695
5237 5236 5242 5259 5279 5299 5317 5334 5356 5375 5395 5410 5427 5438 5450 5463 5474 5482 5491 5505 5517 5530 5542 5563 5575 5583 5595 5605 5609 5614 5622 5632 5638 5645 5650 5656 5662 5665 5668 5670 5674 5683 5685 5686 5686 5693 5686
5231 5233 5240 5256 5275 5293 5308 5326 5350 5372 5391 5406 5419 5432 5445 5457 5462 5467 5478 5493 5509 5520 5535 5552 5565 5573 5585 5595 5599 5607 5615 5622 5630 5637 5644 5649 5653 5656 5662 5663 5669 5675 5677 5679 5679 5687 5679
5233 5238 5247 5261 5278 5294 5309 5331 5353 5372 5387 5402 5417 5429 5441 5448 5452 5459 5471 5482 5494 5506 5521 5540 5554 5564 5579 5589 5593 5599 5606 5614 5620 5629 5635 5642 5648 5652 5656 5657 5661 5669 5669 5671 5675 5671 5672
5238 5242 5255 5269 5285 5299 5319 5339 5356 5373 5386 5400 5414 5426 5435 5440 5447 5454 5463 5476 5487 5501 5516 5530 5553 5557 5570 5576 5583 5589 5598 5605 5611 5617 5626 5634 5640 5645 5650 5651 5657 5659 5662 5663 5664 5663 5663